Date,TemperatureHighF,TemperatureAvgF,TemperatureLowF,DewpointHighF,DewpointAvgF,DewpointLowF,HumidityHigh,HumidityAvg,HumidityLow,PressureMaxIn,PressureMinIn,WindSpeedMaxMPH,WindSpeedAvgMPH,GustSpeedMaxMPH,PrecipitationSumIn
2013-3-1,36.2,33.8,30.7,33.0,30.8,26.0,95,89,81,30.04,29.93,8,2,14,0.00
2013-3-2,30.5,28.3,27.4,26.0,22.8,21.0,87,80,75,30.09,30.02,10,2,11,0.00
2013-3-3,31.7,28.6,25.7,26.0,22.4,19.0,87,78,67,30.11,30.05,12,2,13,0.01
2013-3-4,42.9,31.8,17.8,28.0,22.4,16.0,94,71,46,30.20,30.03,8,1,9,0.00
2013-3-5,39.3,36.4,31.9,37.0,32.9,28.0,95,87,71,30.04,29.56,14,5,18,0.28
2013-3-6,34.4,31.7,30.0,32.0,29.8,29.0,95,92,88,30.26,29.61,12,4,17,0.03
2013-3-7,41.4,34.2,30.3,34.0,30.6,29.0,94,87,72,30.39,30.25,5,1,9,0.11
2013-3-8,41.5,34.3,25.9,31.0,26.8,23.0,90,75,57,30.48,30.38,7,2,12,0.00
2013-3-9,57.2,43.9,30.9,39.0,32.5,27.0,86,67,44,30.40,30.06,13,3,15,0.00
2013-3-10,67.6,58.7,50.8,39.0,35.8,33.0,55,43,30,30.06,29.83,11,4,22,0.00
2013-3-11,62.6,49.9,39.4,52.0,44.5,33.0,94,83,40,29.87,29.59,15,5,24,0.68
2013-3-12,43.7,38.4,34.6,34.0,31.0,29.0,85,75,61,30.05,29.84,15,6,24,0.00
2013-3-13,34.4,30.7,27.2,32.0,25.8,22.0,93,82,69,30.32,30.01,20,6,24,0.06
2013-3-14,43.1,33.7,23.5,26.0,21.7,19.0,88,65,40,30.38,30.18,10,3,14,0.00
2013-3-15,53.2,41.5,30.5,39.0,32.7,22.0,90,72,58,30.18,29.81,9,3,13,0.00
2013-3-16,60.7,47.7,36.6,53.0,42.7,33.0,92,83,66,30.01,29.62,10,4,19,0.26
2013-3-17,37.2,35.4,33.4,33.0,31.0,29.0,90,84,77,30.14,30.00,10,4,16,0.05
2013-3-18,49.9,42.5,34.4,49.0,40.5,33.0,95,92,80,30.01,29.63,13,6,23,0.69
2013-3-19,45.2,38.4,31.9,35.0,25.0,16.0,87,61,32,30.10,29.83,23,10,30,0.00
2013-3-20,40.4,33.8,25.1,24.0,18.8,13.0,69,55,41,30.10,29.94,17,6,25,0.00
2013-3-21,33.2,26.0,20.2,20.0,16.3,13.0,87,68,50,30.07,29.95,9,3,14,0.03
2013-3-22,44.0,31.6,19.1,22.0,18.2,16.0,89,61,33,30.11,30.01,7,2,11,0.00
2013-3-23,52.6,39.0,27.5,28.0,24.7,20.0,86,60,34,30.08,29.89,10,2,12,0.00
2013-3-24,38.4,34.7,32.1,33.0,29.5,25.0,96,82,60,29.89,29.39,14,6,22,0.12
2013-3-25,34.3,33.1,31.0,33.0,31.9,30.0,96,95,93,29.93,29.42,11,4,15,0.29
2013-3-26,40.7,35.2,31.6,34.0,31.4,28.0,94,86,71,30.24,29.94,14,4,17,0.22
2013-3-27,43.3,37.0,30.7,33.0,28.2,25.0,87,71,52,30.31,30.23,10,4,16,0.00
2013-3-28,51.8,39.1,26.5,30.0,26.1,22.0,86,62,38,30.37,30.29,9,2,14,0.00
2013-3-29,56.8,42.3,26.6,35.0,29.7,25.0,93,65,36,30.34,30.21,9,1,10,0.00
2013-3-30,59.2,47.2,32.0,38.0,33.0,30.0,93,62,37,30.25,29.95,8,2,15,0.00
2013-3-31,57.2,48.7,44.2,48.0,42.1,36.0,94,79,59,29.95,29.77,10,2,19,0.03